Vertical_Velocity
2 1 -2 0 -0 1 3 0 -1 -0 -2 -0 -7 1 -4 -5 -5 -3 3 1 0 1 -2 -5 5 -2 -3 -0 2 -0 1 0 -2 0 -1 1 -1 1 1 -3 2 -0 0 -1 -4
-3 -0 4 -0 -4 -1 -2 3 1 -1 -2 1 -3 -5 -1 -6 -4 -2 -0 1 1 -3 -3 -6 -8 -4 -3 1 0 0 0 -3 -2 -1 -1 -1 -1 -3 -0 1 -0 1 1 -0 -3
-0 -1 -4 1 3 1 -0 -5 -1 -1 1 -1 -4 -5 -0 -5 -10 3 -4 -3 1 -2 -1 -1 -1 -1 -1 -0 -0 -0 -1 -1 -2 -2 -0 -1 3 1 -1 3 -6 -9 -2 0 -2
1 -1 1 -1 -0 1 -1 3 -1 -5 -2 -0 2 -5 -1 -4 -4 -0 -1 -4 2 4 -1 -1 -3 -1 0 0 1 3 -1 0 -2 0 0 -0 1 2 1 -3 1 -1 4 4 1
-3 -0 0 3 1 -1 2 -2 1 1 -5 3 -6 3 -6 -0 -23 9 -2 -0 -0 2 -2 -1 -1 1 1 1 0 2 -1 1 1 0 1 1 0 -3 -0 -2 1 1 -0 1 2
-1 -5 -2 -1 -0 2 1 1 2 2 1 -3 2 0 -0 0 -1 3 7 -1 -1 2 2 3 -3 2 0 -0 1 1 0 -3 -1 0 1 -1 1 0 -1 0 1 3 1 1 -0
0 -1 -7 -1 -3 -1 -0 -2 0 -1 1 -2 -1 1 4 -49 -8 1 7 -10 1 1 -9 3 1 1 2 -1 -0 -0 1 -2 -1 -0 -0 -4 4 -1 -2 1 2 2 3 -1 -0
-3 2 3 -2 -4 -6 -4 -0 -3 -3 -3 -2 -2 3 -9 -16 -6 -7 10 -10 3 1 -1 8 6 5 -1 -3 0 3 3 2 -2 1 0 7 -7 -0 0 -3 1 1 0 1 2
2 1 2 1 3 5 -2 -2 -2 -1 -3 -1 2 2 -14 0 1 5 -2 -3 3 3 3 4 8 -2 4 3 1 1 -1 1 -4 -1 0 5 -3 -0 2 1 1 0 0 2 -1
1 0 -0 -1 1 -1 5 -2 -0 -0 -4 -3 1 9 -9 -14 3 3 -2 3 3 5 3 3 3 0 2 5 -6 -2 1 1 -1 -1 3 2 -3 1 -0 3 -5 -0 2 1 0
4 -3 -3 0 -1 1 -4 -3 -1 -2 2 -6 -4 -7 0 -1 -5 4 2 -2 2 5 0 1 4 -5 -12 -5 -4 0 1 0 -2 -2 3 -2 -1 -3 -2 5 3 0 -0 -0 0
-1 2 -2 5 0 -3 6 -5 2 -1 -7 -12 -11 3 -12 -4 -1 -24 14 -1 4 -1 2 4 -3 -11 0 2 2 3 2 -8 -7 -2 9 -1 -7 -3 0 -9 -10 -6 -1 1 2
-0 2 3 -2 -3 -7 10 -2 -2 6 1 -8 -9 0 -4 13 -13 -26 -3 -3 1 4 -0 -1 -13 3 4 1 5 -1 1 -2 -1 -3 -0 6 -4 2 0 4 7 1 3 3 -3
-2 1 0 -3 -3 -1 -5 2 4 2 4 -10 -1 -7 2 3 -3 -10 -10 -4 9 -5 -0 -3 -9 0 3 0 3 7 -3 2 2 6 -1 3 -9 1 -0 0 3 1 1 1 -4
-3 0 -1 -2 -2 -2 1 -0 2 4 -1 -3 2 7 -1 -4 3 4 7 27 -3 -3 9 -18 1 3 7 -18 2 -13 1 -2 0 2 8 -2 11 -9 2 3 -2 -2 -1 -3 -5
1 0 4 -2 -3 -1 1 4 3 -0 -18 -1 -1 0 3 2 -2 4 -1 5 -4 7 1 -10 -3 2 -11 -4 -2 -3 3 2 1 1 8 -9 6 -17 -4 -12 -1 -0 1 0 0
-2 -0 1 3 -6 6 12 3 5 3 -8 -4 -1 1 -0 1 3 1 1 5 -3 3 3 0 -8 -4 5 6 3 8 6 1 4 7 -6 0 12 -21 -0 -2 -5 -5 -5 -1 3
-0 -1 -2 -2 7 10 12 12 6 -8 -3 -2 -0 2 -2 -3 -2 1 2 2 0 3 1 0 1 2 -5 -8 -13 -6 -8 -4 -5 -2 -4 1 -5 -13 1 0 -0 -0 4 5 2
-3 -0 -5 -8 4 11 13 7 -12 -1 -1 0 -2 3 -1 1 3 4 -0 -1 -4 -4 -3 1 -3 0 2 -1 2 -1 8 -17 1 0 3 -5 -5 3 -0 0 -0 -0 1 2 3
2 0 -13 1 11 10 11 -5 -1 -0 -0 -1 1 1 0 -3 4 4 0 -3 -2 -3 2 -7 -0 -1 -1 4 1 -3 -7 10 4 2 0 -2 -2 -6 -1 -3 -0 0 0 2 3
5 -1 -4 -2 14 19 2 -3 -1 -1 1 2 1 -0 0 1 1 -1 -4 -4 0 -0 2 2 10 -3 3 2 -5 8 6 2 -1 2 -1 -0 -5 -3 -1 -0 -0 -0 -0 -1 -1
2 -1 2 1 6 -0 1 -2 -1 -4 2 -1 4 2 1 0 0 0 -1 -2 0 -1 1 2 -2 -0 -6 -0 2 2 -2 -4 0 0 -1 3 -4 -0 -0 -0 0 -1 -1 -1 2
-0 -4 3 11 0 -1 -4 -2 -0 1 -2 1 -1 0 -0 1 -0 1 -0 1 1 -0 -2 -2 -1 0 1 -1 1 2 -1 -1 -1 0 -2 -2 -7 -0 -1 -1 -1 -0 1 1 1
-3 -3 0 3 3 1 2 -7 -2 2 -0 1 0 3 3 1 0 -1 -2 -4 -0 1 -1 -4 0 -3 1 5 1 0 -0 -0 -1 1 -1 -3 -2 -0 1 0 1 -1 1 -2 -1
-0 -4 2 -1 -2 1 2 1 -0 -1 0 3 -1 4 1 3 -0 -0 0 -2 -2 1 0 -5 -1 1 -1 -1 1 1 1 -0 1 -2 1 -3 -1 -5 -2 0 1 2 -0 2 -1
-14 -6 -0 -0 1 -1 -0 -12 2 -7 4 -4 4 -1 1 3 -2 -3 5 -1 2 -8 -1 -2 -1 1 -2 -1 1 1 -1 0 -0 -2 2 2 -8 -3 -1 -0 1 -2 -1 -3 -3
4 1 0 -1 1 4 -3 -2 -1 -0 -2 1 3 4 4 -9 1 -2 1 -1 1 5 -0 0 2 2 -8 0 2 7 -10 -2 -1 0 -4 0 -20 -0 1 0 -2 0 -3 -5 -3
Height
1537 1537 1537 1538 1538 1538 1537 1536 1535 1535 1534 1532 1531 1530 1528 1526 1525 1524 1523 1522 1520 1518 1516 1513 1512 1510 1508 1507 1507 1505 1508 1510 1508 1509 1501 1504 1506 1509 1509 1510 1511 1512 1513 1514 1518
1534 1535 1535 1535 1534 1534 1534 1533 1532 1532 1531 1529 1528 1528 1525 1524 1521 1520 1520 1519 1517 1516 1514 1511 1509 1507 1507 1506 1506 1506 1507 1506 1501 1501 1500 1500 1502 1505 1509 1511 1511 1510 1510 1512 1517
1529 1530 1531 1532 1532 1531 1530 1530 1529 1529 1528 1527 1524 1525 1523 1523 1521 1517 1517 1517 1515 1514 1513 1511 1510 1508 1507 1505 1505 1506 1501 1500 1498 1499 1498 1499 1501 1503 1504 1509 1503 1501 1504 1510 1514
1525 1526 1526 1528 1529 1527 1527 1526 1525 1525 1526 1524 1522 1521 1521 1521 1524 1517 1515 1515 1514 1513 1511 1511 1510 1508 1507 1506 1505 1504 1499 1499 1496 1496 1497 1496 1497 1499 1501 1498 1498 1501 1505 1507 1511
1520 1521 1522 1522 1524 1523 1523 1523 1522 1520 1521 1521 1520 1519 1518 1518 1512 1513 1511 1509 1510 1511 1509 1509 1509 1509 1507 1506 1505 1502 1497 1496 1495 1493 1493 1494 1494 1495 1498 1498 1497 1499 1503 1507 1511
1515 1515 1517 1518 1519 1519 1518 1519 1519 1518 1516 1518 1517 1516 1513 1515 1507 1506 1507 1506 1507 1508 1507 1507 1508 1509 1508 1505 1504 1500 1497 1494 1493 1491 1491 1492 1495 1496 1498 1497 1497 1499 1502 1506 1511
1510 1510 1510 1513 1513 1514 1512 1514 1514 1514 1513 1514 1514 1512 1508 1500 1503 1504 1502 1500 1501 1501 1501 1503 1504 1508 1506 1503 1500 1498 1496 1491 1488 1487 1487 1489 1495 1491 1492 1497 1498 1500 1503 1507 1510
1505 1504 1505 1506 1505 1509 1508 1508 1510 1510 1510 1510 1511 1509 1498 1494 1493 1491 1493 1490 1489 1494 1494 1497 1500 1501 1502 1502 1497 1497 1496 1493 1484 1483 1484 1486 1485 1486 1489 1493 1496 1499 1501 1505 1508
1501 1502 1501 1503 1503 1502 1502 1504 1506 1506 1505 1504 1506 1506 1495 1491 1486 1486 1488 1489 1488 1489 1489 1493 1495 1497 1499 1500 1500 1496 1491 1493 1488 1481 1483 1484 1481 1483 1487 1491 1495 1496 1498 1501 1505
1498 1497 1500 1500 1501 1500 1500 1500 1502 1501 1500 1501 1503 1505 1491 1489 1488 1484 1485 1485 1486 1486 1488 1491 1491 1492 1496 1496 1496 1489 1492 1490 1486 1478 1480 1480 1478 1483 1487 1489 1486 1488 1494 1498 1500
1495 1494 1495 1493 1495 1496 1498 1499 1501 1500 1496 1494 1493 1489 1484 1484 1485 1486 1482 1484 1483 1485 1483 1486 1485 1483 1477 1481 1481 1486 1489 1486 1482 1480 1479 1476 1475 1473 1481 1487 1488 1489 1490 1491 1494
1493 1493 1492 1490 1489 1491 1493 1496 1496 1495 1492 1489 1486 1480 1479 1484 1479 1478 1485 1485 1483 1479 1481 1484 1476 1473 1474 1481 1482 1483 1484 1483 1478 1477 1480 1473 1469 1466 1474 1474 1474 1476 1482 1486 1490
1491 1491 1490 1486 1489 1489 1493 1495 1495 1491 1493 1476 1474 1467 1468 1471 1463 1464 1478 1479 1479 1477 1474 1471 1464 1467 1474 1477 1481 1480 1480 1481 1480 1474 1472 1471 1458 1461 1465 1467 1472 1474 1477 1482 1481
1488 1487 1487 1488 1491 1486 1491 1493 1493 1494 1490 1464 1464 1455 1458 1463 1457 1454 1458 1470 1468 1466 1473 1467 1465 1466 1469 1469 1473 1470 1470 1474 1476 1480 1473 1466 1451 1446 1451 1455 1462 1463 1467 1469 1474
1483 1485 1484 1488 1488 1487 1490 1490 1492 1493 1492 1454 1457 1454 1453 1456 1449 1451 1454 1462 1457 1458 1463 1450 1460 1463 1461 1457 1466 1462 1465 1468 1470 1473 1472 1463 1467 1433 1439 1447 1451 1451 1454 1458 1462
1479 1481 1483 1485 1485 1487 1487 1490 1493 1496 1488 1452 1450 1450 1452 1452 1449 1452 1452 1456 1459 1464 1458 1452 1455 1456 1453 1456 1455 1460 1466 1467 1470 1471 1466 1454 1459 1409 1430 1428 1432 1436 1440 1444 1451
1474 1477 1479 1481 1483 1484 1486 1489 1493 1485 1454 1447 1443 1446 1447 1444 1446 1449 1451 1452 1450 1456 1457 1450 1445 1448 1450 1455 1454 1458 1464 1477 1479 1472 1450 1439 1449 1405 1417 1419 1420 1425 1430 1436 1443
1470 1473 1474 1477 1480 1482 1483 1485 1474 1453 1448 1443 1439 1444 1442 1439 1439 1442 1446 1448 1447 1442 1443 1447 1443 1438 1436 1440 1445 1448 1452 1459 1457 1452 1441 1445 1427 1409 1417 1419 1419 1420 1424 1431 1436
1466 1469 1470 1473 1476 1478 1478 1469 1456 1452 1448 1449 1440 1442 1439 1434 1434 1436 1437 1436 1433 1434 1438 1438 1434 1424 1425 1430 1434 1444 1445 1443 1458 1460 1454 1430 1416 1415 1419 1417 1418 1419 1421 1424 1430
1462 1465 1465 1470 1472 1474 1471 1457 1455 1453 1452 1450 1445 1439 1436 1431 1433 1432 1427 1425 1426 1425 1427 1426 1433 1425 1424 1428 1426 1429 1435 1449 1456 1448 1445 1417 1425 1412 1418 1415 1417 1418 1420 1425 1430
1458 1461 1460 1464 1469 1468 1456 1454 1453 1451 1453 1455 1450 1447 1441 1436 1430 1427 1423 1422 1421 1423 1425 1427 1432 1433 1431 1425 1422 1426 1430 1441 1445 1441 1420 1416 1417 1419 1418 1416 1414 1417 1421 1424 1428
1454 1458 1456 1459 1466 1460 1454 1452 1454 1451 1452 1454 1452 1453 1449 1444 1436 1429 1425 1423 1422 1422 1423 1429 1428 1434 1431 1427 1429 1424 1422 1435 1433 1435 1432 1420 1409 1416 1416 1414 1413 1416 1421 1426 1428
1449 1452 1453 1455 1458 1457 1455 1452 1453 1451 1449 1453 1453 1447 1445 1448 1443 1435 1429 1427 1422 1420 1422 1428 1433 1430 1427 1432 1430 1430 1425 1433 1434 1438 1428 1430 1422 1415 1412 1411 1413 1414 1417 1422 1428
1448 1451 1451 1452 1451 1453 1452 1448 1448 1448 1452 1450 1448 1450 1451 1446 1447 1439 1441 1431 1430 1422 1425 1426 1437 1436 1432 1428 1431 1431 1429 1426 1427 1425 1425 1425 1421 1413 1414 1414 1412 1415 1418 1420 1426
1443 1443 1444 1449 1450 1449 1452 1449 1445 1447 1446 1445 1448 1444 1443 1443 1440 1441 1440 1436 1437 1433 1425 1427 1431 1436 1434 1437 1437 1432 1429 1424 1429 1429 1424 1419 1416 1406 1411 1411 1410 1414 1418 1420 1424
1436 1440 1443 1446 1446 1448 1447 1444 1448 1447 1451 1444 1440 1439 1443 1443 1438 1433 1437 1439 1441 1434 1439 1433 1427 1431 1427 1422 1425 1429 1427 1426 1423 1423 1418 1416 1406 1406 1408 1409 1409 1411 1414 1419 1420
1429 1433 1437 1441 1442 1445 1444 1444 1441 1448 1445 1443 1444 1442 1439 1437 1440 1436 1434 1434 1434 1433 1436 1442 1434 1430 1415 1413 1420 1421 1414 1413 1411 1409 1408 1411 1395 1401 1405 1405 1403 1403 1407 1410 1413